STARLINK-1307, 45397

Orbit data source: Space-Track

STARLINK-1307, 45397 is a payload satellite owned by SpaceX/Seattle (US) in LEO that was launched on Wed, 18 Mar 2020 UTC via an FALCON 9 launch vehicle from the Air Force Eastern Test Range (AFETR). Payload-class satellites include a variety of spacecraft equipped with specific instruments for various scientific and technological missions. These include communications satellites like Starlink; space stations such as the ISS; scientific satellites like the Hubble; Earth observation satellites from companies like Planet Labs, Umbra, and HawkEye 360; GPS; miniature CubeSats for education and research; and military/defense satellites.

Loading next visibility...
Identifier
45397, 2020-019AP
Orbit
LEO
Last TLE update
13 hours ago
Origin
Manufacturer
SpaceX/Seattle
Mission
Operational Commercial Communications
Bus & Motor
STARLINK, Unknown motor
Mass
260 kg wet, ~248 kg dry
Launch date (UTC)
2020-03-18 (5 years ago)
Launch vehicle
FALCON 9
Launch site
Air Force Eastern Test Range (AFETR)
Object type
Payload
Rocket body
Debris
Shape & HBR
Box + 1 Pan, 8.86 m
Radar Cross Section
13.562 m², Large (>1 m²)

Expand to show TLE details & history

TLE from 13 hours ago
0 STARLINK-1307
1 45397U 20019AP  25186.24204338  .00001188  00000-0  98623-4 0  9998
2 45397  53.0537 177.4517 0001262  84.7242 275.3890 15.06399718292537
Epoch: 2025-07-05T05:48Z
TLE epoch observation values (Epoch: 2025-07-05T05:48:32.548Z)
Latitude
-0.00008°
Longitude
166.83313°
Altitude
548.01 km
Speed
7.589 km/s
True Right ascension
11h 49m 48s
True Declination
0° 00' 00"
Sunlit
Object was in daylight at epoch
Visualization orbit readout
Latitude
22.30733°
Longitude
-177.70264°
Altitude
547.408 km
Speed
7.592 km/s
Apparent Right ascension
15h 15m 20s
Apparent Declination
-9° 55' 17"
Sunlit
Object is in daylight
Visualization observer readout
Local Sidereal Time
06:35:54
Azimuth
70.153° E
Elevation
-36.495°
Doppler factor
1
Orbital elements
Apogee altitude
548.357 km
Perigee altitude
546.609 km
Semi-major axis
6,925.62 km
Eccentricity
0.00013
Inclination
53.0537°
RAAN
177.4517°
Arg. of periapsis
84.7242°
True anomaly
Unknown
Mean anomaly
275.389°
Eccentric anomaly
Unknown
Mean motion
3.76578 °/min
Orbital period
95.6 mins
BSTAR
0.000098623
Loading maneuver chart data...
Loading SW <> Apogee altitude chart data...
Loading historical data...
Loading historical data...
Loading historical data...
Loading historical data...
Loading historical data...
Loading historical data...
Loading historical data...

STARLINK-1307 Visibility forecast

Observer location: undefined°, undefined°

Span
Click to sort rows by Start time (UTC) header in descending order
Start Az.
Max El. time (UTC)
Max El. Az.
Max El.
End time (UTC)
End Az.
5 mins2025-07-06 01:04:20.110Z173.592° S2025-07-06 01:06:20.110Z138.541° SSE21.222°2025-07-06 01:09:20.110Z82.512° E
6 mins2025-07-06 02:43:20.110Z255.724° W2025-07-06 02:46:20.110Z342.126° N36.791°2025-07-06 02:49:20.110Z38.867° NE
6 mins2025-07-06 07:45:20.110Z335.889° NNW2025-07-06 07:47:20.110Z14.048° NNE25.717°2025-07-06 07:51:20.110Z89.54° E
6 mins2025-07-06 09:25:20.110Z288.049° WNW2025-07-06 09:27:20.110Z232.722° WSW36.297°2025-07-06 09:31:20.110Z151.731° SSE
|